Home   Weather   Gdańsk   Past weeks

Flag for Poland Past Weather in Gdańsk, Poland — Yesterday and Last 2 Weeks

Now
43 °F

Light rain. Low clouds.


Feels Like: 35 °F
Forecast: 36 / 42 °F
Wind: 17 mph from Southwest

Location: Gdansk-Rebiechowo

Current Time: Feb 20, 2017 at 7:22:14 pm

Latest Report: Feb 20, 2017 at 7:00 pm


Visibility: 5 mi

Pressure: 29.45 "Hg

Humidity: 93%

Dew Point: 41 °F

Location of GdańskLocation

Past Weather in Gdańsk — Graph

°F

Gdańsk Temperature Yesterday

Maximum temperature yesterday: 43 °F (at 2:00 pm)
Minimum temperature yesterday: 34 °F (at 12:00 am)
Average temperature yesterday: 38 °F

High & Low Weather Summary for the Past Weeks

 TemperatureHumidityPressure
High48 °F (Feb 15, 1:30 pm)100% (Feb 13, 10:00 pm)30.72 "Hg (Feb 13, 10:00 pm)
Low10 °F (Feb 11, 3:30 am)46% (Feb 10, 3:00 pm)29.47 "Hg (Feb 20, 5:30 pm)
Average27 °F84%30.35 "Hg
* Reported Feb 5 6:00 pm — Feb 20 6:00 pm, Gdańsk, Weather by CustomWeather, © 2017

Note: Actual official high and low records may vary slightly from our data, if they occured in-between our weather recording intervals... More about our weather records

Advertising

Gdańsk Weather History for the Previous 24 Hours

Scroll right to see more
 ConditionsComfort  
Time TempWeatherWind HumidityBarometerVisibility
6:00 pm
Mon, Feb 20
43 °FLight rain. Low clouds.20 mph93%29.47 "Hg5 mi
5:30 pm41 °FLight rain. Low clouds.20 mph93%29.47 "Hg6 mi
5:00 pm41 °FLight rain. Fog.20 mph93%29.50 "Hg3 mi
4:30 pm41 °FLight rain. Low clouds.22 mph93%29.50 "Hg5 mi
4:00 pm41 °FLight rain. Broken clouds.22 mph93%29.50 "Hg5 mi
3:30 pm41 °FLight rain. Partly sunny.25 mph93%29.53 "HgN/A
3:00 pm41 °FSprinkles. Partly sunny.25 mph93%29.53 "Hg5 mi
2:30 pm41 °FSprinkles. Low clouds.25 mph87%29.56 "HgN/A
2:00 pm41 °FOvercast.25 mph87%29.56 "HgN/A
1:30 pm41 °FPartly sunny.24 mph87%29.59 "HgN/A
1:00 pm43 °FPartly sunny.23 mph81%29.62 "HgN/A
12:30 pm41 °FOvercast.23 mph87%29.65 "HgN/A
12:00 pm41 °FOvercast.22 mph87%29.65 "HgN/A
11:30 am41 °FLow clouds.21 mph87%29.68 "HgN/A
11:00 am41 °FLow clouds.18 mph87%29.71 "HgN/A
10:30 am39 °FDrizzle. Low clouds.18 mph93%29.71 "HgN/A
10:00 am39 °FLow clouds.20 mph93%29.71 "HgN/A
9:30 am39 °FMore clouds than sun.21 mph93%29.74 "HgN/A
9:00 am39 °FDrizzle. Low clouds.16 mph93%29.77 "HgN/A
8:30 am39 °FDrizzle. Low clouds.17 mph93%29.77 "HgN/A
8:00 am39 °FDrizzle. More clouds than sun.17 mph93%29.77 "Hg5 mi
7:30 am39 °FDrizzle. Mostly cloudy.16 mph93%29.77 "Hg5 mi
7:00 am39 °FDrizzle. More clouds than sun.16 mph93%29.77 "Hg4 mi
6:30 am39 °FMostly cloudy.14 mph93%29.80 "HgN/A
6:00 am39 °FPassing clouds.15 mph93%29.80 "HgN/A
5:30 am39 °FDrizzle. Mostly cloudy.15 mph93%29.80 "Hg4 mi
5:00 am39 °FDrizzle. Mostly cloudy.15 mph93%29.80 "Hg6 mi
4:30 am37 °FDrizzle. Low clouds.15 mph100%29.83 "Hg4 mi
4:00 am37 °FDrizzle. Mostly cloudy.16 mph100%29.83 "Hg4 mi
3:30 am37 °FFog.15 mph100%29.83 "Hg3 mi
3:00 am37 °FMostly cloudy.16 mph100%29.83 "Hg4 mi
2:30 am39 °FMostly cloudy.16 mph93%29.86 "Hg6 mi
2:00 am37 °FLow clouds.14 mph100%29.86 "Hg5 mi
1:30 am37 °FLow clouds.16 mph100%29.86 "Hg5 mi
1:00 am37 °FLow clouds.15 mph93%29.86 "Hg4 mi
12:30 am37 °FFog.13 mph93%29.86 "Hg3 mi
12:00 am37 °FFog.14 mph93%29.86 "Hg3 mi
11:30 pm
Sun, Feb 19
37 °FLow clouds.13 mph93%29.89 "Hg4 mi
11:00 pm37 °FLow clouds.15 mph93%29.89 "Hg4 mi
10:30 pm37 °FLow clouds.17 mph93%29.89 "Hg4 mi
10:00 pm37 °FLow clouds.17 mph93%29.89 "Hg4 mi
9:30 pm39 °FLow clouds.18 mph87%29.89 "Hg6 mi
9:00 pm39 °FLow clouds.16 mph87%29.89 "Hg5 mi
8:30 pm39 °FOvercast.16 mph87%29.89 "Hg5 mi
8:00 pm39 °FOvercast.14 mph87%29.89 "Hg5 mi
7:30 pm39 °FPassing clouds.13 mph81%29.89 "Hg5 mi
7:00 pm39 °FPassing clouds.14 mph81%29.89 "Hg5 mi
Weather by CustomWeather, © 2017

See weather overviewHow to use our weather pages